PAS102 WIII-WADD

Flight info

Callsign PAS102
Flight time N/A
Altitude 39000
Route CA2D CA T3 MOVMO MOVMO1E
Aircraft A320/M-SDE2E3FGHIRWXY/LB1

Departure

Time 2026-05-04 14:52
Airport Soekarno-Hatta International Airport (WIII)

Arrival

Time N/A
Airport Denpasar I Gusti Ngurah Rai International Airport (WADD)
Time Latitude Longitude Altitude Speed Heading
2026-05-04 14:23 -6.11622 106.66829 31 ft 0 kts 158°
2026-05-04 14:43 -6.11612 106.66825 31 ft 3 kts 158°
2026-05-04 14:43 -6.11594 106.66817 42 ft 3 kts 158°
2026-05-04 14:43 -6.11575 106.66810 31 ft 3 kts 154°
2026-05-04 14:44 -6.11557 106.66800 31 ft 3 kts 141°
2026-05-04 14:44 -6.11543 106.66786 31 ft 3 kts 127°
2026-05-04 14:44 -6.11532 106.66769 31 ft 3 kts 106°
2026-05-04 14:44 -6.11529 106.66751 31 ft 2 kts 73°
2026-05-04 14:45 -6.11533 106.66740 31 ft 3 kts 68°
2026-05-04 14:45 -6.11538 106.66727 31 ft 1 kts 68°
2026-05-04 14:47 -6.11538 106.66728 31 ft 1 kts 68°
2026-05-04 14:47 -6.11518 106.66778 31 ft 14 kts 68°
2026-05-04 14:48 -6.11502 106.66819 30 ft 2 kts 68°
2026-05-04 14:48 -6.11491 106.66845 30 ft 6 kts 68°
2026-05-04 14:48 -6.11471 106.66897 30 ft 10 kts 68°
2026-05-04 14:48 -6.11419 106.66942 30 ft 10 kts 348°
2026-05-04 14:49 -6.11339 106.66914 30 ft 14 kts 341°
2026-05-04 14:49 -6.11241 106.66874 30 ft 16 kts 335°
2026-05-04 14:49 -6.11161 106.66839 30 ft 0 kts 339°
2026-05-04 14:50 -6.11159 106.66837 30 ft 3 kts 339°
2026-05-04 14:50 -6.11092 106.66812 30 ft 16 kts 339°
2026-05-04 14:50 -6.11038 106.66791 29 ft 0 kts 336°
2026-05-04 14:50 -6.11036 106.66790 29 ft 2 kts 336°
2026-05-04 14:51 -6.10978 106.66751 28 ft 17 kts 299°
2026-05-04 14:51 -6.10975 106.66690 29 ft 0 kts 251°
2026-05-04 14:51 -6.10976 106.66687 29 ft 6 kts 251°
2026-05-04 14:51 -6.11110 106.66354 31 ft 95 kts 247°
2026-05-04 14:52 -6.11445 106.65505 100 ft 157 kts 247°
2026-05-04 14:52 -6.11833 106.64482 807 ft 157 kts 248°
2026-05-04 14:52 -6.12096 106.63357 1276 ft 182 kts 274°
2026-05-04 14:52 -6.11706 106.62022 1708 ft 211 kts 293°
2026-05-04 14:53 -6.11346 106.61078 2219 ft 226 kts 290°
2026-05-04 14:53 -6.10699 106.58916 3239 ft 256 kts 285°
2026-05-04 14:53 -6.10392 106.57737 3744 ft 270 kts 285°
2026-05-04 14:53 -6.09760 106.55264 5011 ft 279 kts 285°
2026-05-04 14:54 -6.09266 106.53363 6010 ft 284 kts 286°
2026-05-04 14:54 -6.08408 106.51580 6895 ft 288 kts 309°
2026-05-04 14:54 -6.06832 106.50208 7233 ft 315 kts 333°
2026-05-04 14:54 -6.04676 106.49530 7474 ft 340 kts 355°
2026-05-04 14:55 -6.02242 106.49731 7663 ft 365 kts 17°
2026-05-04 14:55 -6.00617 106.50378 7755 ft 381 kts 29°
2026-05-04 14:55 -5.97863 106.52698 8133 ft 403 kts 52°
2026-05-04 14:55 -5.96794 106.54262 8101 ft 419 kts 61°
2026-05-04 14:56 -5.95483 106.56883 9003 ft 411 kts 65°
2026-05-04 14:56 -5.94256 106.59429 9465 ft 404 kts 65°
2026-05-04 14:56 -5.93251 106.62051 9307 ft 398 kts 77°
2026-05-04 14:56 -5.92992 106.64758 8936 ft 384 kts 94°
2026-05-04 14:57 -5.93542 106.67327 8567 ft 372 kts 111°
2026-05-04 14:57 -5.94770 106.69563 8199 ft 361 kts 123°
2026-05-04 14:57 -5.96032 106.71694 7923 ft 348 kts 115°
2026-05-04 14:57 -5.96795 106.73922 7898 ft 328 kts 102°
2026-05-04 14:58 -5.97074 106.76129 7899 ft 310 kts 92°
2026-05-04 14:58 -5.97040 106.78228 7899 ft 292 kts 86°
2026-05-04 14:58 -5.96850 106.80203 7900 ft 276 kts 83°
2026-05-04 14:58 -5.96605 106.82126 7906 ft 281 kts 85°
2026-05-04 14:59 -5.96693 106.84092 8146 ft 284 kts 101°
2026-05-04 14:59 -5.97324 106.85977 8908 ft 287 kts 113°
2026-05-04 14:59 -5.98901 106.89682 9715 ft 290 kts 112°
2026-05-04 15:00 -5.99688 106.91553 9859 ft 291 kts 112°
2026-05-04 15:00 -6.00478 106.93425 9910 ft 292 kts 112°
2026-05-04 15:00 -6.01272 106.95300 9915 ft 291 kts 112°
2026-05-04 15:01 -6.02914 106.99168 9915 ft 329 kts 112°
2026-05-04 15:01 -6.03830 107.01326 9921 ft 338 kts 112°
2026-05-04 15:01 -6.04740 107.03465 9917 ft 327 kts 112°
2026-05-04 15:01 -6.05613 107.05516 9913 ft 311 kts 112°
2026-05-04 15:02 -6.06439 107.07460 9919 ft 295 kts 112°
2026-05-04 15:02 -6.07226 107.09313 9919 ft 287 kts 112°
2026-05-04 15:02 -6.08049 107.11254 9919 ft 318 kts 112°
2026-05-04 15:02 -6.08950 107.13378 9914 ft 337 kts 112°
2026-05-04 15:03 -6.09872 107.15549 9917 ft 337 kts 112°
2026-05-04 15:03 -6.10774 107.17673 9912 ft 323 kts 112°
2026-05-04 15:03 -6.11635 107.19698 9914 ft 307 kts 112°
2026-05-04 15:03 -6.12449 107.21614 9918 ft 290 kts 112°
2026-05-04 15:04 -6.13237 107.23469 9921 ft 293 kts 112°
2026-05-04 15:04 -6.14077 107.25454 9947 ft 324 kts 112°
2026-05-04 15:04 -6.14985 107.27600 10327 ft 339 kts 112°
2026-05-04 15:04 -6.15913 107.29792 11047 ft 342 kts 112°
2026-05-04 15:05 -6.16848 107.32001 11771 ft 346 kts 112°
2026-05-04 15:05 -6.17796 107.34242 12474 ft 350 kts 112°
2026-05-04 15:05 -6.18755 107.36508 13172 ft 354 kts 112°
2026-05-04 15:05 -6.19723 107.38798 13864 ft 358 kts 112°
2026-05-04 15:06 -6.20701 107.41111 14479 ft 361 kts 112°
2026-05-04 15:06 -6.21676 107.43415 15085 ft 365 kts 112°
2026-05-04 15:06 -6.22673 107.45773 15691 ft 368 kts 112°
2026-05-04 15:07 -6.24697 107.50561 16864 ft 376 kts 112°
2026-05-04 15:07 -6.25723 107.52988 17448 ft 379 kts 112°
2026-05-04 15:07 -6.26757 107.55436 18003 ft 383 kts 112°
2026-05-04 15:07 -6.27803 107.57911 18509 ft 386 kts 112°
2026-05-04 15:08 -6.28855 107.60400 19038 ft 388 kts 112°
2026-05-04 15:08 -6.29911 107.62900 19546 ft 390 kts 112°
2026-05-04 15:08 -6.30974 107.65416 20045 ft 392 kts 112°
2026-05-04 15:08 -6.32044 107.67950 20545 ft 395 kts 112°
2026-05-04 15:09 -6.33119 107.70498 21025 ft 398 kts 112°
2026-05-04 15:09 -6.34201 107.73061 21516 ft 400 kts 112°
2026-05-04 15:09 -6.35292 107.75645 21993 ft 403 kts 112°
2026-05-04 15:10 -6.37491 107.80857 22935 ft 408 kts 112°
2026-05-04 15:10 -6.38602 107.83489 23400 ft 410 kts 112°
2026-05-04 15:10 -6.40842 107.88800 24165 ft 415 kts 112°
2026-05-04 15:11 -6.41973 107.91481 24537 ft 418 kts 112°
2026-05-04 15:11 -6.43109 107.94177 24905 ft 420 kts 112°
2026-05-04 15:11 -6.44251 107.96886 25271 ft 422 kts 112°
2026-05-04 15:11 -6.45401 107.99615 25613 ft 425 kts 112°
2026-05-04 15:12 -6.46561 108.02358 25955 ft 428 kts 112°
2026-05-04 15:12 -6.47748 108.05108 26300 ft 430 kts 112°
2026-05-04 15:12 -6.48952 108.07868 26637 ft 432 kts 112°
2026-05-04 15:12 -6.50163 108.10644 26947 ft 435 kts 112°
2026-05-04 15:13 -6.51379 108.13439 27267 ft 437 kts 112°
2026-05-04 15:13 -6.52600 108.16249 27580 ft 440 kts 112°
2026-05-04 15:13 -6.53825 108.19073 27895 ft 442 kts 112°
2026-05-04 15:13 -6.55057 108.21915 28194 ft 444 kts 112°
2026-05-04 15:14 -6.56294 108.24771 28482 ft 447 kts 112°
2026-05-04 15:14 -6.57540 108.27646 28780 ft 449 kts 112°
2026-05-04 15:14 -6.58790 108.30532 29059 ft 451 kts 112°
2026-05-04 15:14 -6.60030 108.33394 29329 ft 454 kts 112°
2026-05-04 15:15 -6.61292 108.36308 29604 ft 456 kts 112°
2026-05-04 15:15 -6.62561 108.39241 29882 ft 458 kts 112°
2026-05-04 15:15 -6.63835 108.42183 30131 ft 460 kts 112°
2026-05-04 15:16 -6.66403 108.48116 30604 ft 465 kts 112°
2026-05-04 15:16 -6.67696 108.51106 30845 ft 467 kts 112°
2026-05-04 15:16 -6.69883 108.57245 31436 ft 466 kts 102°
2026-05-04 15:17 -6.70498 108.60444 31743 ft 465 kts 97°
2026-05-04 15:17 -6.71470 108.66874 32380 ft 465 kts 98°
2026-05-04 15:17 -6.71966 108.70084 32694 ft 464 kts 98°
2026-05-04 15:18 -6.72461 108.73291 32983 ft 464 kts 98°
2026-05-04 15:18 -6.72955 108.76499 33283 ft 464 kts 98°
2026-05-04 15:18 -6.73448 108.79706 33575 ft 464 kts 98°
2026-05-04 15:19 -6.74430 108.86107 34107 ft 463 kts 98°
2026-05-04 15:19 -6.74920 108.89307 34348 ft 462 kts 98°
2026-05-04 15:19 -6.75899 108.95695 34808 ft 462 kts 98°
2026-05-04 15:20 -6.76387 108.98888 35038 ft 461 kts 98°
2026-05-04 15:20 -6.76869 109.02035 35259 ft 461 kts 98°
2026-05-04 15:20 -6.77357 109.05224 35477 ft 461 kts 98°
2026-05-04 15:20 -6.77844 109.08410 35700 ft 461 kts 98°
2026-05-04 15:21 -6.78331 109.11597 35930 ft 461 kts 98°
2026-05-04 15:21 -6.78817 109.14782 36155 ft 461 kts 98°
2026-05-04 15:21 -6.79790 109.21153 36590 ft 461 kts 98°
2026-05-04 15:22 -6.80275 109.24334 36807 ft 460 kts 98°
2026-05-04 15:22 -6.80761 109.27521 37012 ft 460 kts 98°
2026-05-04 15:22 -6.81731 109.33891 37413 ft 460 kts 98°
2026-05-04 15:23 -6.82215 109.37072 37607 ft 460 kts 98°
2026-05-04 15:23 -6.82700 109.40257 37803 ft 460 kts 98°
2026-05-04 15:23 -6.83183 109.43437 37983 ft 460 kts 98°
2026-05-04 15:23 -6.83667 109.46614 38185 ft 459 kts 98°
2026-05-04 15:24 -6.84631 109.52964 38523 ft 459 kts 98°
2026-05-04 15:24 -6.85594 109.59309 38824 ft 458 kts 98°
2026-05-04 15:25 -6.86554 109.65639 38920 ft 457 kts 98°
2026-05-04 15:26 -6.87987 109.75098 38913 ft 456 kts 98°
2026-05-04 15:26 -6.89413 109.84518 38922 ft 456 kts 98°
2026-05-04 15:27 -6.90843 109.93983 38920 ft 456 kts 98°
2026-05-04 15:28 -6.92272 110.03452 38924 ft 456 kts 98°
2026-05-04 15:29 -6.93698 110.12919 38921 ft 456 kts 98°
2026-05-04 15:30 -6.97020 110.35009 38916 ft 456 kts 98°
2026-05-04 15:31 -6.97584 110.44496 38917 ft 455 kts 90°
2026-05-04 15:32 -6.97874 110.60398 38916 ft 454 kts 90°
2026-05-04 15:34 -6.98156 110.76268 38913 ft 453 kts 90°
2026-05-04 15:34 -6.98322 110.85769 38913 ft 452 kts 90°
2026-05-04 15:35 -6.98486 110.95252 38916 ft 451 kts 90°
2026-05-04 15:36 -6.98647 111.04694 38911 ft 448 kts 90°
2026-05-04 15:36 -6.98753 111.10954 38910 ft 448 kts 90°
2026-05-04 15:37 -6.98859 111.17233 38915 ft 449 kts 90°
2026-05-04 15:37 -6.98963 111.23517 38915 ft 449 kts 90°
2026-05-04 15:38 -6.99066 111.29761 38912 ft 450 kts 90°
2026-05-04 15:38 -6.99180 111.36054 38908 ft 450 kts 92°
2026-05-04 15:39 -7.00014 111.42299 38912 ft 451 kts 102°
2026-05-04 15:40 -7.03185 111.51228 38917 ft 453 kts 112°
2026-05-04 15:40 -7.05636 111.57078 38916 ft 454 kts 112°
2026-05-04 15:41 -7.08085 111.62940 38925 ft 454 kts 112°
2026-05-04 15:41 -7.10537 111.68805 38924 ft 455 kts 111°
2026-05-04 15:42 -7.12994 111.74678 38915 ft 455 kts 111°
2026-05-04 15:42 -7.15450 111.80553 38917 ft 456 kts 111°
2026-05-04 15:43 -7.17908 111.86435 38920 ft 456 kts 111°
2026-05-04 15:43 -7.20365 111.92319 38919 ft 456 kts 111°
2026-05-04 15:44 -7.22825 111.98212 38915 ft 456 kts 111°
2026-05-04 15:44 -7.25285 112.04105 38910 ft 457 kts 111°
2026-05-04 15:45 -7.27747 112.10009 38911 ft 457 kts 111°
2026-05-04 15:45 -7.30195 112.15879 38908 ft 458 kts 111°
2026-05-04 15:46 -7.32660 112.21794 38904 ft 458 kts 111°
2026-05-04 15:46 -7.35127 112.27714 38910 ft 459 kts 111°
2026-05-04 15:47 -7.37596 112.33645 38910 ft 459 kts 111°
2026-05-04 15:47 -7.40068 112.39583 38909 ft 460 kts 111°
2026-05-04 15:48 -7.42124 112.44523 38912 ft 460 kts 111°
2026-05-04 15:48 -7.45837 112.53452 38913 ft 461 kts 111°
2026-05-04 15:49 -7.48316 112.59415 38919 ft 462 kts 111°
2026-05-04 15:49 -7.50797 112.65388 38919 ft 462 kts 111°
2026-05-04 15:50 -7.53279 112.71366 38921 ft 463 kts 111°
2026-05-04 15:50 -7.55761 112.77347 38919 ft 463 kts 111°
2026-05-04 15:51 -7.58244 112.83333 38919 ft 463 kts 111°
2026-05-04 15:51 -7.60728 112.89324 38920 ft 463 kts 112°
2026-05-04 15:52 -7.63211 112.95316 38935 ft 463 kts 112°
2026-05-04 15:52 -7.65677 113.01267 38938 ft 463 kts 112°
2026-05-04 15:53 -7.68157 113.07256 38942 ft 463 kts 112°
2026-05-04 15:53 -7.70636 113.13246 38929 ft 463 kts 112°
2026-05-04 15:54 -7.73114 113.19234 38931 ft 463 kts 112°
2026-05-04 15:54 -7.75589 113.25218 38932 ft 462 kts 112°
2026-05-04 15:55 -7.78062 113.31201 38933 ft 462 kts 112°
2026-05-04 15:55 -7.80533 113.37181 38935 ft 462 kts 112°
2026-05-04 15:56 -7.83003 113.43161 38937 ft 462 kts 112°
2026-05-04 15:56 -7.85472 113.49140 38939 ft 462 kts 112°
2026-05-04 15:57 -7.87940 113.55121 38942 ft 462 kts 112°
2026-05-04 15:57 -7.90407 113.61101 38944 ft 462 kts 112°
2026-05-04 15:58 -7.92875 113.67087 38955 ft 462 kts 113°
2026-05-04 15:58 -7.95342 113.73073 38945 ft 461 kts 113°
2026-05-04 15:59 -7.96570 113.76055 38669 ft 460 kts 113°
2026-05-04 15:59 -7.97802 113.79046 37969 ft 463 kts 113°
2026-05-04 15:59 -7.99043 113.82058 37101 ft 467 kts 112°
2026-05-04 15:59 -8.00294 113.85095 36294 ft 470 kts 112°
2026-05-04 16:00 -8.01549 113.88142 35564 ft 471 kts 112°
2026-05-04 16:00 -8.02721 113.91234 34829 ft 472 kts 109°
2026-05-04 16:00 -8.03805 113.94365 34122 ft 473 kts 109°
2026-05-04 16:00 -8.04897 113.97496 33350 ft 473 kts 109°
2026-05-04 16:01 -8.05991 114.00630 32540 ft 474 kts 109°
2026-05-04 16:01 -8.07072 114.03725 31714 ft 475 kts 109°
2026-05-04 16:01 -8.08173 114.06881 30853 ft 477 kts 109°
2026-05-04 16:01 -8.09276 114.10044 30003 ft 479 kts 109°
2026-05-04 16:02 -8.10384 114.13220 29013 ft 480 kts 109°
2026-05-04 16:02 -8.11494 114.16405 28017 ft 482 kts 109°
2026-05-04 16:02 -8.13724 114.22808 25969 ft 486 kts 109°
2026-05-04 16:03 -8.14847 114.26034 24920 ft 488 kts 109°
2026-05-04 16:03 -8.15974 114.29271 23896 ft 490 kts 109°
2026-05-04 16:03 -8.17098 114.32504 23024 ft 486 kts 109°
2026-05-04 16:03 -8.18209 114.35696 22231 ft 478 kts 109°
2026-05-04 16:04 -8.19301 114.38839 21446 ft 471 kts 109°
2026-05-04 16:04 -8.21363 114.44772 19967 ft 460 kts 109°
2026-05-04 16:04 -8.22389 114.47725 19234 ft 454 kts 109°
2026-05-04 16:05 -8.23435 114.50711 18525 ft 448 kts 111°
2026-05-04 16:05 -8.24841 114.53489 17727 ft 442 kts 123°
2026-05-04 16:05 -8.28986 114.57939 16167 ft 431 kts 137°
2026-05-04 16:06 -8.31182 114.59965 15427 ft 425 kts 137°
2026-05-04 16:06 -8.36840 114.65206 14070 ft 397 kts 137°
2026-05-04 16:07 -8.39447 114.67624 13950 ft 371 kts 137°
2026-05-04 16:07 -8.44541 114.72350 13941 ft 294 kts 137°
2026-05-04 16:08 -8.46008 114.73711 13938 ft 278 kts 137°
2026-05-04 16:08 -8.47971 114.78573 13584 ft 252 kts 91°
2026-05-04 16:09 -8.47966 114.82177 13420 ft 256 kts 91°
2026-05-04 16:09 -8.47979 114.85764 13100 ft 252 kts 91°
2026-05-04 16:10 -8.47987 114.89184 12934 ft 226 kts 91°
2026-05-04 16:11 -8.47997 114.93560 11979 ft 210 kts 91°
2026-05-04 16:11 -8.48004 114.95075 11315 ft 220 kts 91°
2026-05-04 16:12 -8.48019 114.99681 9961 ft 216 kts 90°
2026-05-04 16:13 -8.48033 115.09477 8058 ft 154 kts 90°
2026-05-04 16:14 -8.48038 115.12036 8286 ft 216 kts 90°
2026-05-04 16:14 -8.48048 115.14421 11093 ft 140 kts 91°